This is the latest recevied weather packets stored in our database for station/object KC9GSD. If no packets are shown the sender has not sent any weather packets the latest 10 day(s).
| Time | Temp. | Humidity | Pressure | Rain* | Wind** | Luminosity | Snow |
|---|---|---|---|---|---|---|---|
| 1777964615 | 12.22° C | 78% | 1013.1 hPa | 0 mm | - | 0 W/m² | - |
| 1777964310 | 12.22° C | 77% | 1013.3 hPa | 0 mm | - | 0 W/m² | - |
| 1777964007 | 12.22° C | 76% | 1013.2 hPa | 0 mm | - | 0 W/m² | - |
| 1777963704 | 12.22° C | 77% | 1013.3 hPa | 0 mm | - | 0 W/m² | - |
| 1777963401 | 12.22° C | 76% | 1013.2 hPa | 0 mm | - | 0 W/m² | - |
| 1777963100 | 12.78° C | 77% | 1013.3 hPa | 0 mm | - | 0 W/m² | - |
| 1777962795 | 12.22° C | 74% | 1013.5 hPa | 0 mm | - | 0 W/m² | - |
| 1777962492 | 12.22° C | 77% | 1013.3 hPa | 0 mm | - | 0 W/m² | - |
| 1777962190 | 12.22° C | 75% | 1013.5 hPa | 0 mm | - | 0 W/m² | - |
| 1777961886 | 12.78° C | 75% | 1013.4 hPa | 0 mm | - | 0 W/m² | - |
| 1777961584 | 12.78° C | 74% | 1013.5 hPa | 0 mm | - | 0 W/m² | - |
| 1777961282 | 12.78° C | 74% | 1013.5 hPa | 0 mm | - | 0 W/m² | - |
| 1777960979 | 12.78° C | 73% | 1013.4 hPa | 0 mm | - | 0 W/m² | - |
| 1777960674 | 12.78° C | 74% | 1013.7 hPa | 0 mm | - | 0 W/m² | - |
| 1777960370 | 12.78° C | 74% | 1013.5 hPa | 0 mm | - | 0 W/m² | - |
| 1777960068 | 13.33° C | 73% | 1013.7 hPa | 0 mm | - | 0 W/m² | - |
| 1777959765 | 13.33° C | 74% | 1013.7 hPa | 0 mm | - | 0 W/m² | - |
| 1777959463 | 12.78° C | 72% | 1013.8 hPa | 0 mm | - | 0 W/m² | - |
| 1777959160 | 13.33° C | 74% | 1013.8 hPa | 0 mm | - | 0 W/m² | - |
| 1777958857 | 13.33° C | 73% | 1013.8 hPa | 0 mm | - | 0 W/m² | - |
| 1777958554 | 13.33° C | 74% | 1013.8 hPa | 0 mm | - | 0 W/m² | - |
| 1777958251 | 13.33° C | 73% | 1013.9 hPa | 0 mm | - | 0 W/m² | - |
| 1777957949 | 13.33° C | 72% | 1013.7 hPa | 0 mm | - | 0 W/m² | - |
| 1777957647 | 13.33° C | 73% | 1013.8 hPa | 0 mm | - | 0 W/m² | - |
| 1777957345 | 13.89° C | 72% | 1013.7 hPa | 0 mm | - | 0 W/m² | - |
* Rain latest hour (hover to see other rain measurements)
** Current wind speed in m/s (hover to see current wind gust speed)